Location: Corcelles
(46.1547°N, 4.7234°E)
Time: 00:25:31
(UTC+00:00)

Cosmos 1741 Rocket - Pass Details

Date: 14 July 2020
Orbit: 761 x 783 km, 74.0° (Epoch: 03 August)

Event Time Altitude Azimuth Distance (km) Brightness Sun altitude
Exits shadow 03:04:19 10° 209° (SSW) 2,304 5.9 -8.9°
Reaches altitude 10° 03:04:21 10° 209° (SSW) 2,288 5.8 -8.9°
Maximum altitude 03:09:31 71° 293° (WNW) 809 4.1 -8.2°
Drops below altitude 10° 03:14:46 10° 18° (NNE) 2,311 7.6 -7.6°
Sets 03:17:10 0° 21° (NNE) 3,244 8.5 -7.2°
